Showing default

PE2_FLT1 (TYVAK-0261), 59105

Orbit data source: Space-Track

PE2_FLT1 (TYVAK-0261), 59105 is a payload satellite owned by Tyvak NSS (US) in SSO that was launched on Mon, 04 Mar 2024 UTC via an FALCON 9 launch vehicle from the Air Force Western Test Range (AFWTR). Payload-class satellites include a variety of spacecraft equipped with specific instruments for various scientific and technological missions. These include communications satellites like Starlink; space stations such as the ISS; scientific satellites like the Hubble; Earth observation satellites from companies like Planet Labs, Umbra, and HawkEye 360; GPS; miniature CubeSats for education and research; and military/defense satellites.

Loading next visibility...
Identifier
59105, 2024-043H
Orbit
SSO
Country
Flag of USUS
Related business
Manufacturer
Tyvak NSS
Mission
Operational Commercial Technology
Bus & Motor
CUBESAT 12U, Unknown motor
Mass
26 kg wet, 26 kg dry
Launch date (UTC)
2024-03-04 (2 years ago)
Launch vehicle
FALCON 9
Launch site
Air Force Western Test Range (AFWTR)
Object type
Payload
Rocket body
Debris
Shape & HBR
Box + 2 Pan, 0.7 m
Radar Cross Section
0.149 m², Medium (>0.1 m² and < 1m²)

Expand to show TLE details & history
Last TLE update: 15 hours ago

TLE from 15 hours ago
0 PE2_FLT1 (TYVAK-0261)
1 59105U 24043H   25293.85249037  .00006325  00000-0  58155-3 0  9995
2 59105  97.8133  59.6214 0006730 112.9719 247.2212 14.95122181 88860
Epoch: 2025-10-20T20:27Z
TLE epoch observation values (Epoch: 2025-10-20T20:27:35.167Z)
Latitude
-0.00006°
Longitude
83.17602°
Altitude
586.855 km
Speed
7.566 km/s
True Right ascension
03h 58m 29s
True Declination
0° 00' 00"
Sunlit
Object was in full shadow at epoch
Visualization orbit readout
Latitude
Unknown
Longitude
Unknown
Altitude
Unknown
Speed
Unknown
Apparent Right ascension
Unknown
Apparent Declination
Unknown
Sunlit
N/A
Visualization observer readout
Local Sidereal Time
06:33:30
Azimuth
Unknown
Elevation
Unknown
Doppler factor
Unknown
Orbital elements
Apogee altitude
583.692 km
Perigee altitude
574.328 km
Semi-major axis
6,957.147 km
Eccentricity
0.00067
Inclination
97.8133°
RAAN
59.6214°
Arg. of periapsis
112.9719°
True anomaly
247.15012°
Mean anomaly
247.2212°
Eccentric anomaly
247.18566°
Mean motion
3.74021 °/min
Orbital period
96.25 mins
BSTAR
0.00058155
Loading maneuver chart data...
Computing Atmospheric mass density...
Loading historical data...
Loading historical data...
Loading historical data...
Loading historical data...
Loading historical data...
Loading historical data...
Loading historical data...

Documentation

Showing up to 5 results
|